Location: Chevoux
(46.3801°N, 4.9476°E)
Time: 13:09:13
(UTC+00:00)

A-11 Canister half - All Passes

Search period start: 13 May 2021 00:00
Search period end: 23 May 2021 00:00
Orbit: 1526 x 1682 km, 47.3° (Epoch: 12 May)

Date Brightness Start Highest point End Pass type
(mag) Time Alt. Az. Time Alt. Az. Time Alt. Az.
13 May - 07:06:56 10° S 07:14:31 28° SE 07:22:17 10° ENE daylight
13 May - 09:08:52 10° SW 09:18:19 69° SSE 09:28:08 10° ENE daylight
13 May - 11:13:40 10° W 11:23:26 85° N 11:33:32 10° E daylight
13 May - 13:18:52 10° WNW 13:28:46 79° SSW 13:38:53 10° ESE daylight
13 May - 15:24:12 10° WNW 15:33:06 38° SW 15:42:08 10° SSE daylight
14 May - 06:45:33 10° S 06:52:57 27° SE 07:00:30 10° E daylight
14 May - 08:47:16 10° SW 08:56:40 67° SSE 09:06:25 10° ENE daylight
14 May - 10:51:59 10° W 11:01:44 86° N 11:11:49 10° E daylight
14 May - 12:57:13 10° WNW 13:07:05 81° SSW 13:17:12 10° ESE daylight
14 May - 15:02:29 10° WNW 15:11:28 40° SW 15:20:36 10° SSE daylight
14 May - 17:13:28 10° WSW 17:14:25 10° WSW 17:15:20 10° SW daylight
15 May - 06:24:12 10° S 06:31:22 25° SE 06:38:42 10° E daylight
15 May - 08:25:41 10° SW 08:35:01 65° SSE 08:44:43 10° ENE daylight
15 May - 10:30:19 10° W 10:40:02 86° N 10:50:06 10° E daylight
15 May - 12:35:33 10° WNW 12:45:24 82° SSW 12:55:31 10° ESE daylight
15 May - 14:40:47 10° WNW 14:49:51 42° SW 14:59:04 10° SSE daylight
15 May - 16:50:16 10° WSW 16:52:51 11° WSW 16:55:25 10° SW daylight
16 May - 06:02:52 10° S 06:09:48 24° SE 06:16:53 10° E daylight
16 May - 08:04:05 10° SW 08:13:23 63° SSE 08:23:01 10° ENE daylight
16 May - 10:08:40 10° W 10:18:20 86° N 10:28:23 10° E daylight
16 May - 12:13:53 10° WNW 12:23:42 83° SSW 12:33:49 10° ESE daylight
16 May - 14:19:05 10° WNW 14:28:13 43° SW 14:37:31 10° SSE daylight
16 May - 16:27:50 10° W 16:31:17 12° WSW 16:34:46 10° SW daylight
17 May - 05:41:33 10° S 05:48:15 22° SE 05:55:03 10° E daylight
17 May - 07:42:31 10° SW 07:51:45 61° SSE 08:01:18 10° ENE daylight
17 May - 09:47:00 10° W 09:56:39 87° N 10:06:40 10° E daylight
17 May - 11:52:13 10° WNW 12:02:01 85° SSW 12:12:07 10° ESE daylight
17 May - 13:57:23 10° WNW 14:06:35 45° SW 14:15:58 10° SSE daylight
17 May - 16:05:35 10° W 16:09:43 13° WSW 16:13:53 10° SSW daylight
18 May - 05:20:15 10° S 05:26:41 21° SE 05:33:13 10° E daylight
18 May - 07:20:57 10° SW 07:30:07 59° SSE 07:39:36 10° ENE daylight
18 May - 09:25:21 10° W 09:34:58 88° N 09:44:57 10° E daylight
18 May - 11:30:34 10° WNW 11:40:20 86° SSW 11:50:26 10° ESE daylight
18 May - 13:35:43 10° WNW 13:44:57 47° SW 13:54:23 10° SSE daylight
18 May - 15:43:28 10° W 15:48:09 14° WSW 15:52:52 10° SSW daylight
19 May - 04:58:59 10° S 05:05:07 20° SE 05:11:20 10° E daylight
19 May - 06:59:23 10° SW 07:08:29 57° SSE 07:17:54 10° ENE daylight
19 May - 09:03:42 10° W 09:13:17 88° N 09:23:14 10° E daylight
19 May - 11:08:54 10° WNW 11:18:39 87° SSW 11:28:43 10° ESE daylight
19 May - 13:14:02 10° WNW 13:23:19 49° SW 13:32:49 10° SSE daylight
19 May - 15:21:26 10° W 15:26:35 15° SW 15:31:47 10° SSW daylight
20 May - 04:37:46 10° SSE 04:43:34 18° SE 04:49:27 10° E daylight
20 May - 06:37:50 10° SW 06:46:52 55° SE 06:56:12 10° ENE daylight
20 May - 08:42:02 10° WSW 08:51:36 89° N 09:01:31 10° E daylight
20 May - 10:47:14 10° W 10:56:58 88° SSW 11:07:01 10° ESE daylight
20 May - 12:52:21 10° WNW 13:01:40 51° SW 13:11:14 10° SE daylight
20 May - 14:59:28 10° W 15:05:01 17° SW 15:10:37 10° SSW daylight
21 May - 04:16:34 10° SSE 04:22:01 17° SE 04:27:32 10° E daylight
21 May - 06:16:17 10° SW 06:25:15 53° SE 06:34:30 10° ENE daylight
21 May - 08:20:23 10° WSW 08:29:55 90° N 08:39:49 10° E daylight
21 May - 10:25:35 10° W 10:35:17 89° S 10:45:19 10° ESE daylight
21 May - 12:30:41 10° WNW 12:40:02 52° SW 12:49:38 10° SE daylight
21 May - 14:37:32 10° W 14:43:26 18° SW 14:49:25 10° SSW daylight
22 May - 03:55:26 10° SSE 04:00:29 16° SE 04:05:34 10° E daylight
22 May - 05:54:44 10° SW 06:03:38 51° SE 06:12:48 10° ENE daylight
22 May - 07:58:45 10° WSW 08:08:15 89° SSE 08:18:07 10° E daylight
22 May - 10:03:55 10° W 10:13:36 90° N 10:23:36 10° ESE daylight
22 May - 12:09:00 10° WNW 12:18:23 54° SW 12:28:02 10° SE daylight
22 May - 14:15:39 10° W 14:21:51 19° SW 14:28:10 10° SSW daylight
